INMARSAT 3-F5
1 25153U 98006B   03054.80580781  .00000131  00000-0  10000-3 0  8491
2 25153   0.4666 353.2016 0002984 342.7048 132.4452  1.00275433 18556
HOT BIRD 4
1 25237U 98013A   03051.87002466  .00000081  00000-0  10000-3 0  3281
2 25237   0.0941 307.5522 0007523 323.6559 205.4369  1.00273901 18561
NOAA 15
1 25338U 98030A   03055.99122973 +.00000164 +00000-0 +89776-4 0 00191
2 25338 098.5488 077.9668 0009762 301.7204 058.3022 14.24247954248713
RESURS O1-N4
1 25394U 98043A   03055.96026229 +.00000115 +00000-0 +68992-4 0 04592
2 25394 098.6302 133.7700 0002443 089.8923 270.2535 14.23880340240447
TMSAT
1 25396U 980432 25396  98.6243 133.5295 0003625 109.7426 250.4144 14.23513762240529
TECHSAT 1B
1 25397U 98043D   03055.95636878 +.00000060 +00000-0 +45781-4 0 01262
2 25397 098.6210 131.8109 0002199 117.7747 242.3653 14.22961490240405
ASTRA 2A
1 25462U 98050A   03051.31926416  .00000000  00000-0  10000-3 0  5330
2 25462   0.0870 297.6948 0007001 278.8390  76.4419  1.00266022 16452
EUTELSAT W2
1 25491U 98056A   03054.87350111  .00000093  00000-0  00000+0 0  5815
2 25491   0.0035 219.8387 0006366 134.6005 129.2966  1.00273680 16109
HOT BIRD 5
1 25495U 98057A   03042.93716436  .00000165  00000-0  00000+0 0  5001
2 25495   0.0310 255.9940 0003377  65.4663 190.5501  1.00272693 15956
SEDSAT 1
1 25509U 98061B   03055.52631610  .00000693  00000-0  12813-3 0  7873
2 25509  31.4315 119.5183 0357573 354.8331   4.8661 14.27443630226161
PAN SAT
1 25520U 98064B   03055.55834812  .00001970  00000-0  95733-4 0  6412
2 25520  28.4634 183.9707 0005441  55.5189 304.5864 15.13912763238499
ISS (ZARYA)
1 25544U 98067A   03056.51195713  .00013863  00000-0  18211-3 0  7261
2 25544  51.6345 221.1361 0012122 244.4040 219.0269 15.58741515243581
ORSTED
1 25635U 99008B   03056.52271467  .00000699  00000-0  18508-3 0  8409
2 25635  96.4523  41.0915 0144512 307.6205  51.1946 14.44856655210942
SUNSAT
1 25636U 99008C   03055.95810477 +.00000395 +00000-0 +11200-3 0 06836
2 25636 096.4541 039.3055 0148326 315.9137 043.0308 14.42962998210736
UOSAT 12
1 25693U 99021A   03056.32375685  .00000491  00000-0  90115-4 0  7351
2 25693  64.5613 350.1104 0020939 315.5562  44.3860 14.76397929207254
FENGYUN 1C
1 25730U 99025A   03056.52792457  .00000032  00000-0  40557-4 0  7759
2 25730  98.6339  80.6662 0014334 346.6121  13.4673 14.11735044195619
ASTRA 1H
1 25785U 99033A   03049.00000000  .00000116  00000-0  10000-3 0  3724
2 25785   0.0122 319.8851 0002995  65.1991 141.6651  1.00273184 13492
TERRA
1 25994U 99068A   03056.24826350  .00000257  00000-0  66995-4 0  7299
2 25994  98.1933 132.3613 0000872 101.2150 258.9173 14.57138093169642
JAWSAT
1 26061U 00004A   03056.18986756  .00000429  00000-0  16105-3 0  7734
2 26061 100.2032 114.4859 0034732 260.3239  99.4017 14.37832874161488
OPAL
1 26063U 00004C   032 26063 100.2060 111.9519 0036735 268.5295  91.1670 14.35484288161331
ASUSAT
1 26065U 00004E   03055.85477660  .00000133  00000-0  66288-4 0  7415
2 26065 100.2101 111.7246 0036890 270.1736  89.5213 14.35512082161287
GOES 11
1 26352U 00022A   03053.52359343 -.00000041  00000-0  10000-3 0   358
2 26352   0.1489 103.2366 0003355 225.5606 258.1973  1.00265981 10272
EUTELSAT W4
1 26369U 00028A   03054.75114378  .00000145  00000-0  00000+0 0  3548
2 26369   0.0373  12.5955 0003621 336.0176 111.0719  1.00273555 10106
FENGYUN 2B
1 26382U 00032A   03055.65208626 -.00000342  00000-0  00000+0 0  8015
2 26382   0.5557 287.6438 0001691 212.7042 352.9698  1.00272397  9774
EUTELSAT W1
1 26487U 00052A   03054.87867468  .00000057  00000-0  10000-3 0  3596
2 26487   0.0314 296.9935 0003801 337.3757 205.2521  1.00271547  9077
ASTRA 2B
1 26494U 00054A   03049.00000000  .00000146  00000-0  00000+0 0  2555
2 26494   0.0178 354.5658 0005000 302.8402 238.2911  1.00276704  8914
NOAA 16
1 26536U 00055A   03055.88891470 +.00000135 +00000-0 +98070-4 0 02215
2 26536 098.9026 004.1270 0009830 290.9744 069.0320 14.11908629125040
SAUDISAT 1A
1 26545U 00057A   03055.90180258 +.00000610 +00000-0 +10011-3 0 04178
2 26545 064.5602 012.4572 0051727 237.7235 121.8833 14.78996996130164
UNISAT
1 26547U 00057C   03055.88489123 +.00001218 +00000-0 +17605-3 0 04362
2 26547 064.5591 014.7188 0058820 239.7967 119.7303 14.79773616130123
TIUNGSAT 1
1 26548U 00057D   03055.84701289 +.00000967 +00000-0 +14027-3 0 04229
2 26548 064.558SAUDISAT 1B
1 26549U 00057E   03055.94243662 +.00000748 +00000-0 +12080-3 0 07011
2 26549 064.5535 016.4803 0056065 237.8683 121.6964 14.77935153130083
AMSAT OSCAR 40
1 26609U 00072B   03050.21683058 -.00000170 +00000-0 +10000-3 0 03125
2 26609 008.1020 063.9362 7942557 145.4197 310.7583 01.25596576010593
GOES 12
1 26871U 01031A   03056.19351274 -.00000192  00000-0  10000-3 0  8373
2 26871   0.3141 276.2654 0002356  10.9525 204.7249  1.00359819  5903
PCSAT
1 26931U 01043C   03055.96374416 +.00000077 +00000-0 +62942-4 0 04134
2 26931 067.0474 239.1508 0005089 268.9722 091.0796 14.29118165073265
SAPPHIRE
1 26932U 01043D   03056.57077197  .00000031  00000-0  44476-4 0  4052
2 26932  67.0540 237.2909 0004652 244.0726 115.9895 14.29296443 73372
ENVISAT
1 27386U 02009A   03055.97220913 +.00000029 +00000-0 +27028-2 27386 098.5460 124.4246 0000991 095.5958 264.5339 14.32248343051667
IDEFIX/ARIANE 42P
1 27422U 02021B   03056.53927838  .00000168  00000-0  85365-4 0  2417
2 27422  98.6940 135.7085 0013253 127.2416 232.9976 14.27973617 42451
FENGYUN 1D
1 27431U 02024B   03055.98489862 -.00000107 +00000-0 -36909-4 0 02277
2 27431 098.7690 104.7946 0016183 105.6086 254.6870 14.09177991040277
NOAA 17
1 27453U 02032A   03055.96283402 +.00000236 +00000-0 +12359-3 0 03195
2 27453 098.7548 127.1399 0011462 342.5469 017.5313 14.23297611034871
HOT BIRD 6
1 27499U 02038A   03051.87535221  .00000080  00000-0  10000-3 0   696
2 27499   0.0841 289.4691 0009015  81.8198 107.1356  1.00273966  1856
